Temp
17 16 16 15 15 15 15 15 15 16 16 15 16 16 16 16 17 18 18 18 17 17 16 16 17 16 16 16 16 16 15 16 15
17 17 16 16 15 15 15 15 15 15 15 15 15 16 16 16 17 18 18 18 17 17 16 16 17 16 16 16 16 16 15 15 15
17 17 16 16 15 15 16 16 16 15 16 15 15 15 15 16 16 17 18 18 17 16 16 16 16 17 16 16 16 16 16 15 15
17 17 16 16 16 15 15 15 15 15 15 16 16 15 15 15 16 17 18 18 17 16 15 16 16 16 17 16 16 16 16 16 15
17 17 17 16 16 15 15 16 15 15 15 16 16 16 15 15 16 17 18 18 17 16 15 15 16 17 17 17 17 16 16 16 16
18 18 17 17 17 16 16 15 16 16 16 17 17 16 16 17 18 19 19 18 17 16 15 15 16 16 17 17 16 16 16 16 16
19 18 17 17 17 16 16 16 17 16 16 18 18 17 18 19 19 19 19 18 17 16 15 15 15 16 16 16 17 17 16 16 16
19 19 19 18 18 16 17 18 18 18 19 19 19 19 19 19 19 19 19 18 17 16 16 16 16 16 16 16 16 16 16 16 16
20 20 19 19 18 18 18 19 19 19 19 19 19 19 19 19 19 19 19 18 17 16 16 16 16 16 16 16 16 16 16 16 16
20 20 20 19 19 19 19 19 19 19 20 20 20 20 19 19 19 19 19 18 18 17 16 15 16 16 16 16 16 16 16 16 16
19 19 19 19 19 19 19 19 19 19 19 19 19 19 20 20 20 19 19 19 19 18 17 16 15 16 16 16 16 16 16 16 16
19 19 19 19 19 19 19 19 19 19 18 18 19 19 19 19 19 19 19 18 18 18 18 17 16 15 16 16 17 16 16 16 16
18 19 19 18 18 18 18 18 18 18 18 19 19 19 18 18 19 19 19 18 18 18 18 18 17 16 16 15 16 16 16 16 16
18 18 17 17 18 18 17 17 17 17 17 18 18 18 18 18 18 18 18 18 18 18 18 17 17 17 16 16 15 15 15 15 15
17 17 16 16 17 16 16 16 16 16 16 17 16 17 17 17 17 17 18 17 18 18 18 18 18 17 17 17 16 16 15 15 15
15 15 15 15 15 15 14 14 14 14 15 14 15 15 15 17 17 15 15 16 17 17 17 17 18 17 17 16 15 15 15 15 15
14 13 14 13 13 13 13 13 12 13 13 13 13 14 15 16 14 14 15 15 15 15 15 15 15 15 15 15 16 16 15 15 15
12 12 12 12 12 12 12 12 11 12 12 12 12 13 13 12 13 13 14 14 14 14 13 13 14 14 14 14 14 15 14 13 14
11 11 11 11 11 11 10 11 10 11 11 11 11 11 11 11 11 13 12 13 13 12 12 12 12 13 13 13 13 13 12 12 11
10 10 10 10 9 9 9 9 9 9 9 9 9 10 10 10 10 9 11 10 11 11 11 11 10 10 11 12 12 11 11 11 10
Height
781 781 781 782 782 781 781 779 779 779 778 778 778 779 778 778 778 777 777 776 776 776 776 777 777 777 777 776 776 776 775 775 775
781 780 781 781 781 781 780 780 779 779 778 778 778 778 777 777 776 775 774 774 774 775 775 775 775 775 775 774 774 775 774 774 774
780 780 780 780 780 780 779 779 778 778 777 776 776 776 776 775 774 773 772 772 772 772 772 772 773 773 773 772 772 771 771 771 771
780 780 780 780 779 779 778 777 777 776 775 774 773 773 773 773 771 770 769 768 768 769 769 769 769 769 769 769 769 769 769 768 769
778 779 778 778 778 777 776 776 775 774 773 772 771 770 769 769 768 767 765 765 765 765 765 765 765 765 765 765 765 765 765 765 766
776 777 776 776 775 775 774 773 772 771 770 769 768 767 767 766 764 763 762 761 761 761 761 760 760 760 760 760 760 760 760 761 761
774 774 773 773 773 772 772 771 770 769 768 766 764 764 763 762 760 759 757 756 756 756 755 755 755 755 755 754 754 754 755 755 756
773 773 772 772 771 770 771 769 768 767 767 765 764 762 760 758 755 754 752 750 750 750 749 748 748 748 748 748 748 748 748 749 749
772 771 771 771 770 770 769 768 766 765 763 762 760 758 757 754 752 750 748 746 745 745 744 743 742 741 740 740 740 740 740 740 741
770 771 770 770 769 768 767 766 764 762 760 758 756 754 752 750 748 745 743 741 739 738 737 737 736 735 734 733 732 732 732 732 733
769 769 768 767 767 766 765 764 761 760 757 755 753 750 748 745 743 740 737 735 733 731 730 729 728 728 727 726 725 724 724 724 724
768 768 767 766 765 765 763 761 759 757 755 753 750 746 744 742 740 737 734 732 730 727 724 723 723 722 721 719 717 716 716 715 715
767 767 766 765 765 763 762 760 758 756 753 750 747 744 742 739 736 732 729 727 725 723 720 718 717 716 715 713 710 708 707 706 706
767 767 766 766 764 764 762 760 758 755 752 748 744 742 738 735 731 728 725 722 719 716 714 712 710 708 707 705 704 702 700 698 697
769 768 768 766 765 765 763 761 758 756 751 747 743 740 735 731 728 724 721 717 715 713 710 708 705 701 698 697 696 695 693 690 688
771 770 769 768 766 765 763 761 758 755 752 747 742 737 731 727 726 722 719 716 713 710 706 704 700 696 694 692 691 689 687 684 681
773 772 771 769 767 765 763 761 759 756 753 749 743 732 728 724 722 721 719 715 712 707 704 700 696 693 691 688 685 682 680 677 673
773 773 771 770 768 766 765 763 761 757 754 752 750 738 731 728 725 721 716 713 709 706 702 698 695 692 687 683 680 677 674 670 667
774 773 772 771 769 768 766 764 761 758 755 752 749 746 741 732 716 717 716 711 707 703 700 696 692 688 683 678 675 671 668 666 662
774 774 773 771 770 768 766 764 761 759 756 752 748 744 738 733 727 710 710 709 706 701 696 693 687 683 680 675 669 666 662 660 658
Wind_Speed
0 0 3 3 4 4 4 4 5 6 7 6 7 9 9 10 10 10 10 10 11 8 9 9 11 11 12 12 12 12 11 10 9
2 4 5 5 4 5 5 5 5 7 7 8 9 10 13 13 13 14 12 12 11 12 13 13 13 14 13 13 13 13 11 11 11
4 5 7 5 4 6 7 7 8 8 7 8 9 10 12 13 14 15 14 15 14 14 15 15 16 16 14 14 14 14 14 13 13
6 6 6 6 7 8 7 8 9 11 11 10 12 13 14 15 16 16 17 16 17 17 17 18 19 18 18 17 17 17 16 16 16
10 10 10 11 11 10 10 10 12 11 12 13 15 16 18 16 17 18 19 19 17 18 19 19 21 21 22 21 21 20 20 20 20
7 8 13 13 12 11 12 12 12 13 15 15 15 15 14 15 16 17 18 19 19 21 22 23 23 23 24 26 23 24 23 23 23
7 9 12 12 12 13 13 13 13 15 13 14 10 12 12 14 16 18 19 21 21 22 24 25 26 27 27 27 28 26 27 26 27
5 6 6 7 9 8 9 10 11 10 12 13 14 15 17 17 18 19 22 25 24 24 26 27 28 29 30 30 30 31 31 31 32
5 6 6 7 6 8 9 10 10 13 14 16 17 18 20 20 21 22 24 27 28 26 27 28 29 30 32 32 33 35 35 36 35
5 6 7 8 8 9 11 12 13 14 16 17 18 20 22 23 24 25 26 28 31 32 30 30 31 32 33 34 36 37 38 39 39
6 7 8 8 9 10 12 14 16 17 17 19 20 22 24 24 25 25 26 29 31 34 34 31 32 33 35 36 37 39 41 42 43
7 8 8 9 10 12 13 14 15 17 18 20 22 21 22 23 25 26 26 27 28 31 31 30 30 32 34 36 38 40 41 43 44
6 7 8 9 11 11 12 13 15 16 17 19 19 20 22 24 25 25 25 24 25 25 27 28 29 29 31 33 36 39 41 43 45
4 5 7 8 8 9 11 13 14 17 18 19 20 21 22 23 24 25 26 25 24 23 24 26 28 30 31 30 31 34 36 40 41
9 8 9 10 9 10 13 14 15 17 18 21 22 23 24 25 25 23 21 21 20 24 28 29 28 32 30 31 31 31 31 33 37
12 10 10 11 11 12 13 15 17 18 18 19 20 20 28 20 18 22 29 29 27 26 29 30 26 29 31 29 28 29 31 33 34
12 12 12 13 13 14 15 16 16 15 18 18 19 6 14 12 31 36 24 29 27 23 28 28 27 29 32 31 31 35 34 37 38
14 14 13 13 13 14 15 15 16 16 17 17 11 6 6 12 19 22 23 24 32 28 27 34 33 31 31 34 32 29 30 31 34
14 13 13 12 12 12 13 14 15 15 15 17 16 18 20 11 11 12 25 25 24 31 28 29 32 31 29 32 35 29 29 32 32
13 12 12 12 11 12 13 14 15 14 16 16 18 19 19 21 11 13 9 25 23 28 28 26 28 34 40 33 32 32 40 36 32
Wind_Direction
44 204 342 341 325 329 327 328 307 300 295 311 313 308 304 305 299 282 276 276 276 265 254 274 270 273 271 273 272 271 271 259 260
316 306 313 332 322 316 318 309 307 301 301 298 296 288 284 299 291 286 274 271 273 260 258 264 265 266 266 267 268 267 270 262 262
296 278 283 308 312 304 297 299 289 297 303 297 292 283 283 285 284 274 273 267 263 260 261 262 268 260 261 261 260 259 259 256 256
256 274 273 279 288 292 289 293 297 280 277 293 291 289 282 274 273 271 271 267 257 258 259 258 261 266 256 256 258 260 258 256 253
272 282 288 279 288 280 288 282 279 282 280 276 277 282 282 275 267 264 261 260 256 256 256 257 256 258 261 256 253 254 255 254 253
252 258 272 280 288 287 281 281 279 277 278 282 281 282 274 272 268 266 266 263 258 259 258 256 256 255 255 257 257 251 251 252 252
236 250 280 288 284 288 287 291 292 285 280 282 281 262 265 270 271 269 265 263 259 259 259 258 257 256 255 255 256 256 251 249 251
256 266 279 293 299 292 295 293 288 278 281 284 279 276 277 273 271 269 267 264 260 257 256 256 255 254 254 254 253 253 253 252 248
261 268 276 280 282 280 282 281 281 280 279 277 279 279 278 277 275 273 273 272 272 264 262 260 257 255 254 253 252 251 250 251 251
272 276 280 281 283 280 279 281 284 284 284 284 283 281 280 278 275 274 275 274 273 274 267 263 261 260 258 256 254 253 252 251 250
272 278 281 287 288 291 291 292 294 291 291 293 294 292 289 282 280 276 275 276 276 275 274 266 265 262 260 259 257 255 253 252 251
280 290 299 301 304 301 299 299 301 306 304 299 299 297 295 293 291 289 287 286 284 284 281 275 270 270 268 266 263 260 257 255 254
299 306 316 324 315 315 321 323 316 313 313 309 308 308 305 301 299 293 286 284 284 288 291 290 285 276 276 274 272 270 266 261 257
354 8 12 358 354 347 347 338 332 327 321 313 312 309 302 298 296 296 296 291 287 282 280 281 283 283 283 278 276 276 276 275 270
51 41 26 18 9 358 352 342 336 328 325 318 315 307 304 295 294 288 298 323 308 305 303 297 289 280 279 286 280 277 276 276 277
43 32 21 13 6 359 352 348 341 335 335 323 318 307 292 302 324 334 323 314 313 308 303 301 304 306 298 287 292 289 282 281 278
36 29 18 10 3 359 355 351 341 332 337 326 318 323 305 325 329 316 311 306 305 315 316 316 318 315 308 300 295 289 287 287 282
33 24 18 10 4 357 351 346 342 330 330 337 324 321 318 316 305 310 298 321 312 307 315 313 307 303 300 300 300 301 304 308 298
28 20 14 7 359 353 346 342 337 336 325 326 320 311 304 307 309 300 307 298 315 310 303 305 301 298 300 303 302 300 305 312 309
22 13 6 3 358 350 344 339 335 332 330 324 318 309 307 309 309 306 308 298 296 298 296 303 309 309 299 296 301 301 303 303 301